Location: Luxembourg
(49.6117°N, 6.1300°E)
Time: 23:26:24
(UTC+02:00)

ARIANE 6 FM1 Upper Stage - Visible Passes

Search period start: 19 May 2025 00:00
Search period end: 29 May 2025 00:00
Orbit: 533 x 609 km, 62.0° (Epoch: 19 May)

Date Brightness Start Highest point End Pass type
(mag) Time Alt. Az. Time Alt. Az. Time Alt. Az.
19 May 5.7 01:38:22 10° NW 01:40:55 16° N 01:43:28 10° NNE visible
19 May 5.7 03:18:47 10° NNW 03:21:30 17° NNE 03:24:15 10° NE visible
19 May 4.2 04:57:39 10° NW 05:01:36 42° NE 05:05:36 10° ESE visible
19 May 2.6 22:19:21 10° SSW 22:23:17 60° SE 22:27:17 10° NE visible
19 May 4.8 23:59:11 10° W 00:02:42 28° NNW 00:06:17 10° NNE visible
20 May 5.9 01:40:40 10° NW 01:43:02 15° N 01:45:27 10° NNE visible
20 May 5.7 03:20:38 10° NNW 03:23:36 19° NNE 03:26:36 10° ENE visible
20 May 3.5 04:59:27 10° NW 05:03:31 56° NE 05:07:40 10° ESE visible
20 May 2.5 22:21:05 10° SW 22:25:06 87° SE 22:29:10 10° NE visible
21 May 5.2 00:01:26 10° W 00:04:43 23° NNW 00:08:02 10° NNE visible
21 May 6.0 01:42:51 10° NW 01:45:10 15° N 01:47:30 10° NNE visible
21 May 5.4 03:22:26 10° NNW 03:25:39 22° NNE 03:28:57 10° ENE visible
21 May 2.9 05:01:15 10° NW 05:05:24 77° NE 05:09:38 10° SE visible
21 May 3.0 22:22:57 10° SW 22:26:57 67° NW 22:30:59 10° NE visible
22 May 5.5 00:03:44 10° WNW 00:06:46 20° NNW 00:09:50 10° NNE visible
22 May 6.0 01:44:57 10° NNW 01:47:18 15° N 01:49:40 10° NE visible
22 May 5.1 03:24:12 10° NNW 03:27:42 26° NNE 03:31:14 10° E visible
22 May 3.7 22:24:56 10° WSW 22:28:50 48° NW 22:32:47 10° NE visible
23 May 5.7 00:06:04 10° WNW 00:08:51 18° NNW 00:11:39 10° NNE visible
23 May 5.9 01:46:57 10° NNW 01:49:25 15° N 01:51:56 10° NE visible
23 May 4.7 03:25:58 10° NNW 03:29:41 32° NNE 03:33:28 10° E visible
23 May 4.4 22:27:01 10° WSW 22:30:45 37° NW 22:34:33 10° NE visible
24 May 5.9 00:08:23 10° NW 00:10:56 16° N 00:13:31 10° NNE visible
24 May 5.8 01:48:51 10° NNW 01:51:31 17° NNE 01:54:14 10° NE visible
24 May 4.1 03:27:43 10° NW 03:31:39 40° NE 03:35:37 10° ESE visible
24 May 4.9 22:29:11 10° W 22:32:43 29° NNW 22:36:19 10° NNE visible
25 May 5.8 00:10:40 10° NW 00:13:02 15° N 00:15:27 10° NNE visible
25 May 5.6 01:50:40 10° NNW 01:53:36 19° NNE 01:56:34 10° ENE visible
25 May 3.5 03:29:30 10° NW 03:33:33 54° NE 03:37:41 10° ESE visible
25 May 5.3 22:31:24 10° W 22:34:43 24° NNW 22:38:03 10° NNE visible
26 May 5.8 00:12:50 10° NW 00:15:09 15° N 00:17:29 10° NNE visible
26 May 5.3 01:52:27 10° NNW 01:55:38 21° NNE 01:58:53 10° ENE visible
26 May 2.8 03:31:16 10° NW 03:35:24 75° NE 03:39:38 10° SE visible
26 May 5.5 22:33:41 10° WNW 22:36:44 20° NNW 22:39:49 10° NNE visible
27 May 5.7 00:14:56 10° NNW 00:17:15 15° N 00:19:36 10° NE visible
27 May 5.0 01:54:12 10° NNW 01:57:39 25° NNE 02:01:10 10° E visible
27 May 2.5 03:33:05 10° NW 03:37:13 79° SW 03:41:26 10° SE visible
27 May 5.6 22:35:59 10° WNW 22:38:47 18° NNW 22:41:37 10° NNE visible
28 May 5.6 00:16:55 10° NNW 00:19:21 15° N 00:21:50 10° NE visible
28 May 4.5 01:55:57 10° NNW 01:59:38 31° NNE 02:03:23 10° E visible
28 May 2.7 03:34:56 10° NW 03:38:59 55° SW 03:43:07 10° SSE visible
28 May 5.6 22:38:17 10° NW 22:40:51 16° NNW 22:43:26 10° NNE visible
